Time,TemperatureF,DewpointF,PressureIn,WindDirection,WindDirectionDegrees,WindSpeedMPH,WindSpeedGustMPH,Humidity,HourlyPrecipIn,Conditions,Clouds,dailyrainin,SoftwareType,DateUTC
2013-03-01 00:01:00,34.0,33.0,26.89,East,96,0.0,2.0,95,0.00,,,0.02,,2013-03-01 07:01:00,
2013-03-01 00:11:00,34.0,33.0,26.89,East,96,0.0,2.0,95,0.00,,,0.02,,2013-03-01 07:11:00,
2013-03-01 00:21:00,35.0,33.0,26.90,East,92,0.0,0.0,94,0.00,,,0.02,,2013-03-01 07:21:00,
2013-03-01 00:32:00,35.0,33.0,26.89,East,101,0.0,4.0,93,0.00,,,0.02,,2013-03-01 07:32:00,
2013-03-01 00:42:00,35.0,33.0,26.89,East,101,0.0,4.0,93,0.00,,,0.02,,2013-03-01 07:42:00,
2013-03-01 00:51:00,35.0,33.0,26.89,East,80,0.0,1.0,94,0.00,,,0.02,,2013-03-01 07:51:00,
2013-03-01 01:01:00,35.0,33.0,26.89,East,86,0.0,1.0,93,0.00,,,0.02,,2013-03-01 08:01:00,
2013-03-01 01:11:00,35.0,33.0,26.89,East,86,0.0,1.0,93,0.00,,,0.02,,2013-03-01 08:11:00,
2013-03-01 01:21:00,35.0,33.0,26.89,East,86,0.0,1.0,93,0.00,,,0.02,,2013-03-01 08:21:00,
2013-03-01 01:32:00,34.0,33.0,26.90,East,86,0.0,0.0,95,0.00,,,0.02,,2013-03-01 08:32:00,
2013-03-01 01:42:00,34.0,33.0,26.90,East,86,0.0,0.0,95,0.00,,,0.02,,2013-03-01 08:42:00,
2013-03-01 01:53:00,34.0,33.0,26.90,ESE,108,0.0,0.0,96,0.00,,,0.02,,2013-03-01 08:53:00,
2013-03-01 02:02:00,34.0,33.0,26.91,East,92,0.0,0.0,95,0.00,,,0.02,,2013-03-01 09:02:00,
2013-03-01 02:11:00,34.0,33.0,26.91,East,92,0.0,0.0,95,0.00,,,0.02,,2013-03-01 09:11:00,
2013-03-01 02:21:00,34.0,33.0,26.91,East,94,0.0,0.0,96,0.00,,,0.02,,2013-03-01 09:21:00,
2013-03-01 02:31:00,34.0,33.0,26.90,East,79,0.0,0.0,96,0.00,,,0.02,,2013-03-01 09:31:00,
2013-03-01 02:41:00,34.0,33.0,26.90,East,79,0.0,0.0,96,0.00,,,0.02,,2013-03-01 09:41:00,
2013-03-01 02:52:00,34.0,33.0,26.90,ESE,113,0.0,2.0,95,0.00,,,0.02,,2013-03-01 09:52:00,
2013-03-01 03:01:00,34.0,33.0,26.90,ESE,115,0.0,1.0,95,0.00,,,0.02,,2013-03-01 10:01:00,
2013-03-01 03:11:00,34.0,33.0,26.90,ESE,115,0.0,1.0,95,0.00,,,0.02,,2013-03-01 10:11:00,
2013-03-01 03:21:00,35.0,34.0,26.90,East,86,0.0,4.0,95,0.00,,,0.02,,2013-03-01 10:21:00,
2013-03-01 03:32:00,35.0,33.0,26.90,East,80,0.0,2.0,94,0.00,,,0.02,,2013-03-01 10:32:00,
2013-03-01 03:41:00,35.0,33.0,26.90,East,80,0.0,2.0,94,0.00,,,0.02,,2013-03-01 10:41:00,
2013-03-01 03:52:00,35.0,33.0,26.90,East,80,0.0,2.0,94,0.00,,,0.02,,2013-03-01 10:52:00,
2013-03-01 04:01:00,35.0,34.0,26.90,ESE,106,0.0,3.0,95,0.00,,,0.02,,2013-03-01 11:01:00,
2013-03-01 04:11:00,35.0,34.0,26.90,ESE,106,0.0,3.0,95,0.00,,,0.02,,2013-03-01 11:11:00,
2013-03-01 04:22:00,35.0,33.0,26.89,East,95,0.0,2.0,94,0.00,,,0.02,,2013-03-01 11:22:00,
2013-03-01 04:32:00,35.0,34.0,26.89,SE,125,0.0,2.0,95,0.00,,,0.02,,2013-03-01 11:32:00,
2013-03-01 04:41:00,35.0,34.0,26.89,SE,125,0.0,2.0,95,0.00,,,0.02,,2013-03-01 11:41:00,
2013-03-01 04:52:00,35.0,34.0,26.89,East,101,0.0,0.0,96,0.00,,,0.03,,2013-03-01 11:52:00,
2013-03-01 05:01:00,35.0,34.0,26.89,SE,142,0.0,2.0,97,0.00,,,0.03,,2013-03-01 12:01:00,
2013-03-01 05:11:00,35.0,34.0,26.89,SE,142,0.0,2.0,97,0.00,,,0.03,,2013-03-01 12:11:00,
2013-03-01 05:21:00,36.0,35.0,26.88,East,79,0.0,3.0,96,0.00,,,0.04,,2013-03-01 12:21:00,
2013-03-01 05:32:00,35.0,34.0,26.88,ESE,109,0.0,2.0,96,0.00,,,0.04,,2013-03-01 12:32:00,
2013-03-01 05:42:00,35.0,34.0,26.88,ESE,109,0.0,2.0,96,0.00,,,0.04,,2013-03-01 12:42:00,
2013-03-01 05:52:00,36.0,35.0,26.87,East,79,1.0,6.0,95,0.00,,,0.04,,2013-03-01 12:52:00,
2013-03-01 06:01:00,35.0,34.0,26.88,ENE,71,0.0,1.0,96,0.00,,,0.04,,2013-03-01 13:01:00,
2013-03-01 06:11:00,35.0,34.0,26.88,ENE,71,0.0,1.0,96,0.00,,,0.04,,2013-03-01 13:11:00,
2013-03-01 06:21:00,35.0,34.0,26.87,ESE,105,1.0,3.0,97,0.00,,,0.04,,2013-03-01 13:21:00,
2013-03-01 06:32:00,35.0,34.0,26.87,ESE,105,1.0,3.0,97,0.00,,,0.04,,2013-03-01 13:32:00,
2013-03-01 06:41:00,35.0,34.0,26.87,ESE,105,1.0,3.0,97,0.00,,,0.04,,2013-03-01 13:41:00,
2013-03-01 06:52:00,35.0,34.0,26.87,East,81,0.0,2.0,96,0.00,,,0.04,,2013-03-01 13:52:00,
2013-03-01 07:01:00,35.0,34.0,26.87,East,84,0.0,3.0,97,0.00,,,0.04,,2013-03-01 14:01:00,
2013-03-01 07:11:00,35.0,34.0,26.87,East,84,0.0,3.0,97,0.00,,,0.04,,2013-03-01 14:11:00,
2013-03-01 07:21:00,36.0,35.0,26.88,East,86,0.0,4.0,96,0.00,,,0.04,,2013-03-01 14:21:00,
2013-03-01 07:32:00,36.0,35.0,26.87,ESE,113,0.0,6.0,96,0.00,,,0.04,,2013-03-01 14:32:00,
2013-03-01 07:41:00,36.0,35.0,26.87,ESE,113,0.0,6.0,96,0.00,,,0.04,,2013-03-01 14:41:00,
2013-03-01 07:52:00,36.0,35.0,26.87,ENE,64,1.0,5.0,95,0.00,,,0.04,,2013-03-01 14:52:00,
2013-03-01 08:01:00,36.0,35.0,26.88,SE,124,0.0,2.0,95,0.00,,,0.04,,2013-03-01 15:01:00,
2013-03-01 08:11:00,36.0,35.0,26.88,SE,124,0.0,2.0,95,0.00,,,0.04,,2013-03-01 15:11:00,
2013-03-01 08:21:00,36.0,35.0,26.88,SE,124,0.0,2.0,95,0.00,,,0.04,,2013-03-01 15:21:00,
2013-03-01 08:31:00,36.0,35.0,26.88,SE,124,0.0,2.0,95,0.00,,,0.04,,2013-03-01 15:31:00,
2013-03-01 08:42:00,36.0,35.0,26.88,SE,124,0.0,2.0,95,0.00,,,0.04,,2013-03-01 15:42:00,
2013-03-01 08:52:00,36.0,35.0,26.88,ENE,74,0.0,3.0,97,0.00,,,0.04,,2013-03-01 15:52:00,
2013-03-01 09:01:00,36.0,35.0,26.88,East,85,0.0,2.0,95,0.00,,,0.04,,2013-03-01 16:01:00,
2013-03-01 09:11:00,36.0,35.0,26.88,East,85,0.0,2.0,95,0.00,,,0.04,,2013-03-01 16:11:00,
2013-03-01 09:21:00,36.0,35.0,26.88,ENE,76,0.0,1.0,96,0.00,,,0.04,,2013-03-01 16:21:00,
2013-03-01 09:31:00,36.0,35.0,26.88,East,88,0.0,2.0,97,0.00,,,0.04,,2013-03-01 16:31:00,
2013-03-01 09:41:00,36.0,35.0,26.88,East,88,0.0,2.0,97,0.00,,,0.04,,2013-03-01 16:41:00,
2013-03-01 09:51:00,36.0,35.0,26.88,East,88,0.0,1.0,96,0.00,,,0.04,,2013-03-01 16:51:00,
2013-03-01 10:01:00,36.0,35.0,26.88,East,88,0.0,1.0,96,0.00,,,0.04,,2013-03-01 17:01:00,
2013-03-01 10:11:00,36.0,35.0,26.88,East,88,0.0,1.0,96,0.00,,,0.04,,2013-03-01 17:11:00,
2013-03-01 10:21:00,38.0,37.0,26.88,East,79,0.0,2.0,95,0.00,,,0.03,,2013-03-01 17:21:00,
2013-03-01 10:31:00,37.0,36.0,26.89,ESE,105,0.0,2.0,96,0.00,,,0.03,,2013-03-01 17:31:00,
2013-03-01 10:41:00,37.0,36.0,26.89,ESE,105,0.0,2.0,96,0.00,,,0.03,,2013-03-01 17:41:00,
2013-03-01 10:52:00,37.0,36.0,26.89,ESE,105,0.0,2.0,96,0.00,,,0.03,,2013-03-01 17:52:00,
2013-03-01 11:01:00,37.0,36.0,26.89,East,95,0.0,2.0,96,0.00,,,0.03,,2013-03-01 18:01:00,
2013-03-01 11:11:00,37.0,36.0,26.89,East,95,0.0,2.0,96,0.00,,,0.03,,2013-03-01 18:11:00,
2013-03-01 11:22:00,38.0,37.0,26.90,ENE,71,0.0,2.0,97,0.00,,,0.03,,2013-03-01 18:22:00,
2013-03-01 11:31:00,39.0,38.0,26.90,East,99,0.0,5.0,96,0.00,,,0.03,,2013-03-01 18:31:00,
2013-03-01 11:41:00,39.0,38.0,26.90,East,99,0.0,5.0,96,0.00,,,0.03,,2013-03-01 18:41:00,
2013-03-01 11:52:00,39.0,38.0,26.90,East,99,0.0,5.0,96,0.00,,,0.03,,2013-03-01 18:52:00,
2013-03-01 12:01:00,41.0,39.0,26.90,SSE,147,1.0,6.0,94,0.00,,,0.02,,2013-03-01 19:01:00,
2013-03-01 12:11:00,41.0,39.0,26.90,SSE,147,1.0,6.0,94,0.00,,,0.02,,2013-03-01 19:11:00,
2013-03-01 12:21:00,41.0,39.0,26.90,East,99,1.0,6.0,94,0.00,,,0.02,,2013-03-01 19:21:00,
2013-03-01 12:31:00,40.0,39.0,26.89,East,90,0.0,4.0,95,0.00,,,0.02,,2013-03-01 19:31:00,
2013-03-01 12:41:00,40.0,39.0,26.89,East,90,0.0,4.0,95,0.00,,,0.02,,2013-03-01 19:41:00,
2013-03-01 12:51:00,39.0,37.0,26.89,East,80,0.0,2.0,94,0.00,,,0.02,,2013-03-01 19:51:00,
2013-03-01 13:01:00,38.0,37.0,26.89,ENE,75,0.0,1.0,95,0.00,,,0.02,,2013-03-01 20:01:00,
2013-03-01 13:11:00,38.0,37.0,26.89,ENE,75,0.0,1.0,95,0.00,,,0.02,,2013-03-01 20:11:00,
2013-03-01 13:21:00,38.0,37.0,26.89,East,92,1.0,2.0,97,0.00,,,0.02,,2013-03-01 20:21:00,
2013-03-01 13:31:00,38.0,37.0,26.89,East,90,0.0,2.0,97,0.00,,,0.02,,2013-03-01 20:31:00,
2013-03-01 13:52:00,38.0,37.0,26.89,East,86,0.0,1.0,96,0.00,,,0.02,,2013-03-01 20:52:00,
2013-03-01 14:01:00,37.0,36.0,26.88,East,89,0.0,0.0,97,0.00,,,0.02,,2013-03-01 21:01:00,
2013-03-01 14:21:00,38.0,37.0,26.88,ENE,78,0.0,1.0,98,0.00,,,0.03,,2013-03-01 21:21:00,
2013-03-01 14:31:00,38.0,37.0,26.89,ENE,69,0.0,3.0,98,0.00,,,0.03,,2013-03-01 21:31:00,
2013-03-01 15:01:00,38.0,37.0,26.88,East,82,0.0,5.0,97,0.00,,,0.04,,2013-03-01 22:01:00,
2013-03-01 15:31:00,38.0,37.0,26.89,ESE,113,0.0,1.0,98,0.00,,,0.05,,2013-03-01 22:31:00,
2013-03-01 15:52:00,38.0,37.0,26.90,East,88,0.0,1.0,98,0.10,,,0.07,,2013-03-01 22:52:00,
2013-03-01 16:11:00,38.0,37.0,26.90,East,88,0.0,1.0,98,0.10,,,0.07,,2013-03-01 23:11:00,
2013-03-01 16:21:00,39.0,39.0,26.90,ENE,73,0.0,2.0,99,0.00,,,0.09,,2013-03-01 23:21:00,
2013-03-01 16:32:00,39.0,39.0,26.90,ENE,73,0.0,2.0,99,0.00,,,0.09,,2013-03-01 23:32:00,
2013-03-01 16:41:00,37.0,36.0,26.90,SE,132,0.0,2.0,97,0.00,,,0.09,,2013-03-01 23:41:00,
2013-03-01 16:42:00,39.0,39.0,26.90,ENE,73,0.0,2.0,99,0.00,,,0.09,,2013-03-01 23:42:00,
2013-03-01 16:52:00,38.0,37.0,26.91,East,92,0.0,0.0,98,0.00,,,0.09,,2013-03-01 23:52:00,
2013-03-01 17:01:00,37.0,36.0,26.90,SE,132,0.0,2.0,97,0.00,,,0.09,,2013-03-02 00:01:00,
2013-03-01 17:11:00,37.0,36.0,26.90,SE,132,0.0,2.0,97,0.00,,,0.09,,2013-03-02 00:11:00,
2013-03-01 17:21:00,37.0,36.0,26.90,SE,132,0.0,2.0,97,0.00,,,0.09,,2013-03-02 00:21:00,
2013-03-01 17:52:00,37.0,37.0,26.90,East,98,0.0,0.0,99,0.00,,,0.09,,2013-03-02 00:52:00,
2013-03-01 18:01:00,37.0,37.0,26.90,East,81,0.0,1.0,99,0.00,,,0.09,,2013-03-02 01:01:00,
2013-03-01 18:11:00,37.0,37.0,26.90,East,81,0.0,1.0,99,0.00,,,0.09,,2013-03-02 01:11:00,
2013-03-01 18:31:00,36.0,36.0,26.90,ENE,77,0.0,0.0,99,0.00,,,0.09,,2013-03-02 01:31:00,
2013-03-01 18:52:00,36.0,36.0,26.91,East,85,0.0,2.0,99,0.00,,,0.09,,2013-03-02 01:52:00,
2013-03-01 19:01:00,36.0,36.0,26.91,SE,140,0.0,2.0,99,0.00,,,0.09,,2013-03-02 02:01:00,
2013-03-01 19:21:00,36.0,36.0,26.92,ESE,109,0.0,0.0,99,0.00,,,0.09,,2013-03-02 02:21:00,
2013-03-01 19:31:00,36.0,36.0,26.91,East,92,0.0,1.0,99,0.00,,,0.09,,2013-03-02 02:31:00,
2013-03-01 19:41:00,36.0,36.0,26.91,East,92,0.0,1.0,99,0.00,,,0.09,,2013-03-02 02:41:00,
2013-03-01 19:52:00,36.0,36.0,26.91,East,93,0.0,0.0,99,0.00,,,0.09,,2013-03-02 02:52:00,
2013-03-01 20:01:00,36.0,36.0,26.91,East,96,0.0,1.0,99,0.00,,,0.09,,2013-03-02 03:01:00,
2013-03-01 20:11:00,36.0,36.0,26.91,East,96,0.0,1.0,99,0.00,,,0.09,,2013-03-02 03:11:00,
2013-03-01 20:21:00,36.0,36.0,26.91,East,85,0.0,0.0,99,0.00,,,0.09,,2013-03-02 03:21:00,
2013-03-01 20:32:00,36.0,36.0,26.91,East,80,0.0,2.0,99,0.00,,,0.09,,2013-03-02 03:32:00,
2013-03-01 20:41:00,36.0,36.0,26.91,East,80,0.0,2.0,99,0.00,,,0.09,,2013-03-02 03:41:00,
2013-03-01 20:52:00,36.0,36.0,26.91,East,81,0.0,6.0,99,0.00,,,0.09,,2013-03-02 03:52:00,
2013-03-01 21:01:00,36.0,36.0,26.91,East,81,0.0,6.0,99,0.00,,,0.09,,2013-03-02 04:01:00,
2013-03-01 21:11:00,36.0,36.0,26.91,East,81,0.0,6.0,99,0.00,,,0.09,,2013-03-02 04:11:00,
2013-03-01 21:21:00,36.0,36.0,26.91,East,93,0.0,2.0,99,0.00,,,0.09,,2013-03-02 04:21:00,
2013-03-01 21:31:00,36.0,36.0,26.91,East,93,0.0,2.0,99,0.00,,,0.09,,2013-03-02 04:31:00,
2013-03-01 21:41:00,36.0,36.0,26.91,East,93,0.0,2.0,99,0.00,,,0.09,,2013-03-02 04:41:00,
2013-03-01 21:51:00,36.0,36.0,26.91,East,84,1.0,2.0,99,0.00,,,0.09,,2013-03-02 04:51:00,
2013-03-01 22:01:00,36.0,36.0,26.90,ENE,74,1.0,2.0,99,0.00,,,0.09,,2013-03-02 05:01:00,
2013-03-01 22:12:00,36.0,36.0,26.90,ENE,74,1.0,2.0,99,0.00,,,0.09,,2013-03-02 05:12:00,
2013-03-01 22:22:00,37.0,37.0,26.90,East,99,0.0,3.0,99,0.00,,,0.09,,2013-03-02 05:22:00,
2013-03-01 22:31:00,36.0,35.0,26.90,East,81,0.0,1.0,98,0.00,,,0.09,,2013-03-02 05:31:00,
2013-03-01 22:41:00,36.0,35.0,26.90,East,81,0.0,1.0,98,0.00,,,0.09,,2013-03-02 05:41:00,
2013-03-01 22:52:00,36.0,36.0,26.90,East,86,0.0,1.0,99,0.00,,,0.09,,2013-03-02 05:52:00,
2013-03-01 23:01:00,36.0,36.0,26.91,East,86,0.0,0.0,99,0.00,,,0.09,,2013-03-02 06:01:00,
2013-03-01 23:11:00,36.0,36.0,26.91,East,86,0.0,0.0,99,0.00,,,0.09,,2013-03-02 06:11:00,
2013-03-01 23:21:00,36.0,36.0,26.90,East,81,0.0,2.0,99,0.00,,,0.09,,2013-03-02 06:21:00,
2013-03-01 23:31:00,36.0,36.0,26.90,East,92,0.0,1.0,99,0.00,,,0.09,,2013-03-02 06:31:00,
2013-03-01 23:41:00,36.0,36.0,26.90,East,92,0.0,1.0,99,0.00,,,0.09,,2013-03-02 06:41:00,
2013-03-01 23:52:00,36.0,36.0,26.90,East,81,0.0,2.0,99,0.00,,,0.09,,2013-03-02 06:52:00,